Location: Br�znic
(45.9167°N, 22.6500°E)
Time: 12:35:43
(UTC+00:00)

USA 308 - Pass Details

Date: 03 March 2021
Orbit: 571 x 574 km, 54.0° (Epoch: 10 April)

Event Time Altitude Azimuth Distance (km) Brightness Sun altitude
Rises 18:29:40 0° 295° (WNW) 2,781 7.8 -23.4°
Reaches altitude 10° 18:32:10 10° 307° (NW) 1,881 6.5 -23.8°
Maximum altitude 18:35:55 29° 8° (N) 1,072 4.3 -24.4°
Enters shadow 18:35:59 29° 10° (N) 1,072 4.3 -24.4°
